User: anonymous   Login
Location: Unspecified
(0.0000°N, 0.0000°E)
Time: 13:07:19
(UTC+00:00)
Language:

CORIOLIS - Orbit

View from above orbital plane
View from above orbital plane
View from above satellite
View from above satellite

Ground track
Ground track

The orbit data is extracted from the following two-line orbital elements,

1 27640U 03001A   21015.81129200 -.00000003  00000-0  19257-4 0  9997
2 27640  98.7244  27.9796 0014796 143.1317  29.8119 14.19058393933550
Epoch (UTC): 15 January 2021 19:28:15
Eccentricity: 0.0014796
inclination: 98.7244°
perigee height: 818 km
apogee height: 839 km
right ascension of ascending node: 27.9796°
argument of perigee: 143.1317°
revolutions per day: 14.19058393
mean anomaly at epoch: 29.8119°
orbit number at epoch: 93355

The dashed part of the orbit path shows where the satellite is in the earth's shadow,  

DLR